Hourly Weather Russkiy

Today, 18 April, Sunday

Time Temperature Precipitation Wind Pressure Humidity
00:00 +6°C° 0 mm 1 mps 746 mmHg 91%
01:00 +6°C° 0 mm 1 mps 746 mmHg 91%
02:00 +6°C° 0 mm 1 mps 746 mmHg 91%
03:00 +6°C° 0 mm 1 mps 746 mmHg 92%
04:00 +5°C° 0 mm 1 mps 746 mmHg 92%
05:00 +5°C° 0 mm 1 mps 746 mmHg 92%
06:00 +5°C° 0 mm 2 mps 746 mmHg 89%
07:00 +6°C° 0 mm 2 mps 746 mmHg 86%
08:00 +6°C° 0 mm 2 mps 746 mmHg 83%
09:00 +6°C° 0.3 mm 2 mps 746 mmHg 83%
10:00 +7°C° 0.3 mm 3 mps 746 mmHg 82%
11:00 +7°C° 0.3 mm 3 mps 746 mmHg 81%
12:00 +7°C° 0.5 mm 2 mps 746 mmHg 82%
13:00 +7°C° 0.5 mm 2 mps 746 mmHg 82%
14:00 +8°C° 0.5 mm 1 mps 746 mmHg 83%
15:00 +7°C° 0.3 mm 2 mps 746 mmHg 81%
16:00 +7°C° 0.3 mm 2 mps 746 mmHg 79%
17:00 +8°C° 0.3 mm 2 mps 746 mmHg 77%
18:00 +7°C° 0.1 mm 2 mps 746 mmHg 81%
19:00 +5°C° 0.1 mm 3 mps 746 mmHg 86%
20:00 +4°C° 0.1 mm 3 mps 746 mmHg 90%
21:00 +4°C° 0 mm 3 mps 746 mmHg 90%
22:00 +4°C° 0 mm 3 mps 746 mmHg 91%
23:00 +5°C° 0 mm 2 mps 746 mmHg 91%

Tomorrow, 19 April, Monday

Time Temperature Precipitation Wind Pressure Humidity
00:00 +3°C° 0 mm 3 mps 746 mmHg 92%
01:00 +3°C° 0 mm 3 mps 746 mmHg 92%
02:00 +3°C° 0 mm 3 mps 746 mmHg 93%
03:00 +3°C° 0.3 mm 3 mps 746 mmHg 94%
04:00 +4°C° 0.3 mm 3 mps 746 mmHg 95%
05:00 +4°C° 0.3 mm 4 mps 746 mmHg 96%
06:00 +4°C° 0.1 mm 4 mps 746 mmHg 94%
07:00 +5°C° 0.1 mm 4 mps 746 mmHg 93%
08:00 +6°C° 0.1 mm 5 mps 746 mmHg 91%
09:00 +6°C° 0.1 mm 5 mps 746 mmHg 87%
10:00 +7°C° 0.1 mm 5 mps 746 mmHg 84%
11:00 +8°C° 0.1 mm 6 mps 746 mmHg 80%
12:00 +7°C° 0.1 mm 6 mps 747 mmHg 84%
13:00 +5°C° 0.1 mm 6 mps 747 mmHg 88%
14:00 +4°C° 0.1 mm 6 mps 747 mmHg 92%
15:00 +4°C° 0.2 mm 6 mps 747 mmHg 93%
16:00 +3°C° 0.2 mm 5 mps 747 mmHg 94%
17:00 +2°C° 0.2 mm 5 mps 747 mmHg 96%
18:00 +2°C° 0 mm 5 mps 747 mmHg 96%
19:00 +1°C° 0 mm 5 mps 747 mmHg 96%
20:00 +1°C° 0 mm 5 mps 747 mmHg 96%
21:00 +1°C° 0 mm 4 mps 747 mmHg 96%
22:00 +1°C° 0 mm 4 mps 747 mmHg 97%
23:00 +1°C° 0 mm 4 mps 746 mmHg 97%

Day after tomorrow, 20 April, Tuesday

Time Temperature Precipitation Wind Pressure Humidity
00:00 +2°C° 0.1 mm 3 mps 746 mmHg 97%
01:00 +2°C° 0.1 mm 3 mps 746 mmHg 98%
02:00 +2°C° 0.1 mm 3 mps 746 mmHg 98%
03:00 +2°C° 0 mm 3 mps 745 mmHg 98%
04:00 +3°C° 0 mm 2 mps 745 mmHg 98%
05:00 +3°C° 0 mm 2 mps 745 mmHg 98%
06:00 +4°C° 0 mm 2 mps 745 mmHg 96%
07:00 +4°C° 0 mm 2 mps 744 mmHg 94%
08:00 +5°C° 0 mm 2 mps 744 mmHg 92%
09:00 +6°C° 0 mm 4 mps 744 mmHg 84%
10:00 +8°C° 0 mm 5 mps 743 mmHg 75%
11:00 +10°C° 0 mm 6 mps 742 mmHg 66%
12:00 +9°C° 0.5 mm 6 mps 742 mmHg 75%
13:00 +8°C° 0.5 mm 6 mps 741 mmHg 84%
14:00 +5°C° 0.5 mm 6 mps 741 mmHg 92%
15:00 +5°C° 0.9 mm 7 mps 740 mmHg 92%
16:00 +5°C° 0.9 mm 7 mps 739 mmHg 92%
17:00 +5°C° 0.9 mm 8 mps 737 mmHg 92%
18:00 +4°C° 4.3 mm 8 mps 736 mmHg 93%
19:00 +4°C° 4.3 mm 8 mps 735 mmHg 94%
20:00 +2°C° 4.3 mm 9 mps 734 mmHg 95%
21:00 +2°C° 2.5 mm 8 mps 733 mmHg 95%
22:00 +4°C° 2.5 mm 7 mps 731 mmHg 96%
23:00 +4°C° 2.5 mm 6 mps 730 mmHg 96%

21 April, Wednesday

Time Temperature Precipitation Wind Pressure Humidity
00:00 +5°C° 0.6 mm 6 mps 729 mmHg 94%
01:00 +5°C° 0.6 mm 6 mps 729 mmHg 92%
02:00 +5°C° 0.6 mm 6 mps 729 mmHg 91%
03:00 +4°C° 0.3 mm 6 mps 729 mmHg 92%
04:00 +2°C° 0.3 mm 6 mps 730 mmHg 94%
05:00 +1°C° 0.3 mm 6 mps 730 mmHg 96%
06:00 0°C° 0.3 mm 7 mps 731 mmHg 96%
07:00 0°C° 0.3 mm 8 mps 733 mmHg 96%
08:00 0°C° 0.3 mm 8 mps 734 mmHg 96%
09:00 0°C° 0 mm 8 mps 735 mmHg 96%
10:00 0°C° 0 mm 8 mps 736 mmHg 95%
11:00 +1°C° 0 mm 8 mps 737 mmHg 95%
12:00 +1°C° 0 mm 8 mps 738 mmHg 92%
13:00 +3°C° 0 mm 7 mps 739 mmHg 89%
14:00 +3°C° 0 mm 7 mps 740 mmHg 87%
15:00 +3°C° 0 mm 6 mps 740 mmHg 85%
16:00 +4°C° 0 mm 6 mps 741 mmHg 84%
17:00 +5°C° 0 mm 5 mps 742 mmHg 82%
18:00 +5°C° 0 mm 5 mps 743 mmHg 82%
19:00 +4°C° 0 mm 4 mps 743 mmHg 83%
20:00 +4°C° 0 mm 4 mps 744 mmHg 83%
21:00 +4°C° 0 mm 4 mps 744 mmHg 84%
22:00 +4°C° 0 mm 3 mps 745 mmHg 84%
23:00 +4°C° 0 mm 3 mps 745 mmHg 84%

22 April, Thursday

Time Temperature Precipitation Wind Pressure Humidity
00:00 +4°C° 0.1 mm 3 mps 745 mmHg 86%
01:00 +4°C° 0.1 mm 3 mps 745 mmHg 88%
02:00 +4°C° 0.1 mm 3 mps 746 mmHg 90%
03:00 +3°C° 0 mm 3 mps 746 mmHg 91%
04:00 +3°C° 0 mm 3 mps 746 mmHg 92%
05:00 +2°C° 0 mm 3 mps 747 mmHg 93%
06:00 +4°C° 0 mm 4 mps 747 mmHg 88%
07:00 +6°C° 0 mm 4 mps 747 mmHg 83%
08:00 +7°C° 0 mm 5 mps 747 mmHg 78%
09:00 +9°C° 0.1 mm 5 mps 747 mmHg 74%
10:00 +10°C° 0.1 mm 6 mps 748 mmHg 71%
11:00 +11°C° 0.1 mm 6 mps 748 mmHg 67%
12:00 +13°C° 0.4 mm 6 mps 748 mmHg 65%
13:00 +13°C° 0.4 mm 6 mps 748 mmHg 63%
14:00 +14°C° 0.4 mm 5 mps 747 mmHg 61%
15:00 +13°C° 0.5 mm 5 mps 748 mmHg 64%
16:00 +13°C° 0.5 mm 5 mps 748 mmHg 67%
17:00 +12°C° 0.5 mm 4 mps 748 mmHg 71%
18:00 +11°C° 0.3 mm 4 mps 748 mmHg 77%
19:00 +10°C° 0.3 mm 4 mps 748 mmHg 82%
20:00 +8°C° 0.3 mm 3 mps 748 mmHg 88%
21:00 +8°C° 0.1 mm 3 mps 748 mmHg 89%
22:00 +8°C° 0.1 mm 3 mps 748 mmHg 90%
23:00 +7°C° 0.1 mm 3 mps 749 mmHg 91%

23 April, Friday

Time Temperature Precipitation Wind Pressure Humidity
00:00 +7°C° 0 mm 3 mps 748 mmHg 92%
01:00 +7°C° 0 mm 3 mps 748 mmHg 93%
02:00 +7°C° 0 mm 3 mps 748 mmHg 93%
03:00 +5°C° 0 mm 3 mps 748 mmHg 93%
04:00 +5°C° 0 mm 3 mps 748 mmHg 94%
05:00 +5°C° 0 mm 3 mps 748 mmHg 94%
06:00 +8°C° 0 mm 3 mps 749 mmHg 89%
07:00 +8°C° 0 mm 4 mps 749 mmHg 83%
08:00 +11°C° 0 mm 4 mps 749 mmHg 78%
09:00 +12°C° 0.1 mm 5 mps 749 mmHg 73%
10:00 +13°C° 0.1 mm 5 mps 749 mmHg 69%
11:00 +15°C° 0.1 mm 5 mps 749 mmHg 64%
12:00 +15°C° 0.2 mm 5 mps 748 mmHg 60%
13:00 +16°C° 0.2 mm 5 mps 748 mmHg 57%
14:00 +16°C° 0.2 mm 5 mps 747 mmHg 54%
15:00 +16°C° 0.4 mm 5 mps 747 mmHg 57%
16:00 +15°C° 0.4 mm 4 mps 747 mmHg 61%
17:00 +15°C° 0.4 mm 4 mps 747 mmHg 64%
18:00 +13°C° 0 mm 3 mps 747 mmHg 70%
19:00 +12°C° 0 mm 3 mps 747 mmHg 76%
20:00 +10°C° 0 mm 3 mps 747 mmHg 82%
21:00 +10°C° 0 mm 3 mps 747 mmHg 83%
22:00 +9°C° 0 mm 3 mps 747 mmHg 84%
23:00 +9°C° 0 mm 3 mps 747 mmHg 85%
Show more